Location: Star Corral Observatory
(36.0443°N, 95.7804°W)
Time: 08:07:24
(UTC-06:00)

Tiangong - Visible Passes

Search period start: 08 December 2025 00:00
Search period end: 18 December 2025 00:00
Orbit: 384 x 397 km, 41.5° (Epoch: 07 December)

Date Brightness Start Highest point End Pass type
(mag) Time Alt. Az. Time Alt. Az. Time Alt. Az.
08 Dec -2.1 06:09:05 30° WNW 06:10:30 75° NNE 06:13:44 10° ESE visible
09 Dec 0.0 05:14:13 26° E 05:14:13 26° E 05:15:55 10° E visible
09 Dec -0.9 06:46:46 10° W 06:49:41 32° SSW 06:52:36 10° SSE visible
10 Dec -2.0 05:51:43 54° WSW 05:52:02 58° SSW 05:55:12 10° SE visible
11 Dec 1.1 04:56:52 15° ESE 04:56:52 15° ESE 04:57:30 10° ESE visible
11 Dec 0.0 06:29:13 11° WSW 06:30:58 16° SW 06:33:03 10° S visible
12 Dec -0.2 05:34:23 23° S 05:34:23 23° S 05:36:07 10° SSE visible
